Theta_e
346 347 348 349 349 348 349 349 349 351 352 351 352 352 353 354 352 352 353 353 354 353 353 352 351 352 354 356 356 356 356 356 354 351 350 351 355 356 356 354 354 354 355 356 356 353 352 348 348 349 350 347 346 348 347 347 347 348 348 345 345 346 347 341 338 341 345 346 348 351 354 355 351 350 350 351 352 353 356 355 355 353 350 348 347
346 347 348 349 348 349 349 349 349 350 351 350 351 351 351 351 352 352 351 352 353 353 352 354 351 349 349 347 348 349 348 346 348 349 348 347 348 355 356 354 353 353 352 350 352 354 350 346 347 349 349 348 348 349 349 348 348 347 346 347 343 344 347 346 342 340 343 345 344 347 348 353 348 349 348 349 351 354 353 353 356 354 352 348 344
347 347 347 348 348 349 349 349 349 349 349 350 350 350 351 351 351 350 350 351 352 352 352 345 345 345 346 347 347 347 347 347 348 349 348 348 347 350 355 354 351 350 349 349 350 351 350 350 350 350 355 351 350 351 353 350 350 347 346 346 345 344 344 347 344 340 339 340 341 345 345 346 346 349 350 351 353 353 351 353 355 356 354 350 346
348 348 347 348 348 348 349 349 349 349 348 349 349 350 350 350 351 350 350 350 350 351 345 346 346 345 346 346 346 347 347 347 348 347 346 347 348 351 354 353 352 350 349 349 350 351 349 347 348 349 350 349 348 348 349 349 346 346 346 346 346 346 345 346 346 343 337 338 339 342 344 345 346 348 351 353 352 353 353 354 355 354 352 352 346
349 349 348 347 348 348 348 349 349 348 348 348 348 349 349 350 350 350 350 350 350 347 347 347 346 346 346 345 346 346 346 346 346 347 348 348 349 352 354 353 350 349 349 349 357 352 350 350 349 348 348 347 348 347 348 348 349 347 347 346 347 348 349 347 346 344 342 342 341 340 342 344 345 348 350 350 352 353 352 352 354 352 352 352 349
349 349 349 348 348 348 348 348 348 348 348 348 348 349 349 349 349 350 350 349 348 347 347 347 349 346 346 346 346 346 346 346 346 346 348 349 350 350 352 350 349 348 348 350 351 355 352 350 350 348 348 347 349 348 347 347 349 349 346 345 347 348 345 345 345 344 343 343 341 342 342 345 347 348 349 350 351 351 352 353 351 350 348 348 349
348 349 349 349 348 348 348 348 348 348 349 349 349 349 349 348 348 348 350 350 348 346 347 348 350 347 347 347 347 347 347 348 347 347 348 348 348 348 351 349 349 349 351 352 353 354 354 353 352 350 349 349 350 349 348 348 351 348 348 347 348 348 348 348 348 345 344 344 344 343 345 347 347 348 350 352 352 351 349 348 348 348 346 346 348
348 348 349 348 348 349 349 349 349 349 349 349 349 348 348 348 348 348 349 348 349 348 347 348 349 348 347 347 348 349 348 348 348 348 348 348 348 349 350 349 349 350 353 354 354 354 354 354 354 353 351 351 349 348 350 349 347 346 347 348 348 348 347 348 348 348 347 347 348 348 348 348 348 348 350 348 346 346 346 345 344 346 348 347 348
347 348 348 348 348 349 349 349 349 349 350 349 348 348 348 348 348 347 348 348 350 350 349 348 348 347 348 348 349 350 349 348 349 349 348 347 349 350 349 350 351 350 351 352 353 352 351 352 353 353 358 363 365 362 360 357 350 346 346 345 348 348 348 349 348 348 347 347 346 347 347 347 347 347 346 345 344 344 347 346 345 346 346 346 348
347 347 347 348 349 349 349 349 349 348 348 348 348 348 348 348 348 346 345 347 348 349 348 349 348 347 347 348 349 350 350 349 353 356 355 350 349 351 351 350 350 349 351 351 351 352 351 353 361 364 362 360 357 354 352 352 353 351 347 346 344 343 343 345 345 345 345 343 344 345 344 344 346 346 346 347 348 347 345 345 343 345 345 344 346
347 347 346 348 348 348 348 348 348 347 348 348 348 348 348 348 348 347 346 345 347 348 348 347 348 348 348 348 348 349 350 350 350 344 346 351 356 352 352 352 352 351 352 351 349 352 353 350 347 348 344 343 343 345 345 345 346 347 347 348 350 346 340 339 339 341 340 340 343 344 342 339 338 341 343 342 344 343 343 344 344 344 343 341 338
346 346 347 347 347 347 347 347 346 346 347 347 348 348 348 347 347 347 346 344 345 347 346 346 347 348 348 348 348 348 347 347 338 335 338 339 351 355 353 353 353 352 352 351 350 352 350 346 342 344 341 339 333 330 335 340 343 344 344 348 347 343 342 340 338 335 335 334 335 335 336 335 335 337 338 339 339 340 342 343 343 343 341 341 341
346 346 346 345 345 345 345 346 346 346 346 347 348 348 347 347 347 347 345 345 345 345 345 345 345 347 347 346 345 342 335 330 326 330 331 333 338 353 350 351 350 350 350 349 351 350 342 334 326 326 331 338 335 328 327 330 340 342 342 345 346 341 335 336 339 338 335 333 332 332 333 334 333 335 337 339 342 337 339 339 340 340 341 340 342
343 345 344 344 345 345 345 346 346 347 348 348 349 348 347 347 348 348 346 345 344 344 344 344 344 344 344 342 334 327 326 328 323 326 326 327 330 339 349 349 346 347 347 348 348 345 338 328 321 320 322 327 328 326 327 329 330 332 333 334 334 336 337 335 335 336 337 332 331 330 333 335 333 334 337 339 337 337 336 336 338 337 338 339 342
340 342 343 344 345 345 345 346 346 348 350 351 351 350 349 348 348 347 345 343 342 342 342 341 340 334 328 325 322 319 320 321 321 323 323 324 326 336 343 346 345 344 344 343 342 339 329 324 320 319 320 322 329 333 329 329 330 331 331 331 331 330 330 330 329 331 334 331 330 331 332 334 334 335 336 338 339 339 339 338 339 339 340 343 343
341 341 342 344 344 345 346 346 347 348 350 350 350 349 347 348 348 347 344 342 340 337 331 327 322 319 319 319 318 316 317 318 318 319 321 323 332 344 345 344 345 345 342 335 327 325 325 322 321 320 319 319 327 333 335 332 329 329 328 328 328 329 330 335 330 334 337 332 333 335 336 337 338 340 340 338 338 339 342 341 341 340 340 338 337
341 340 341 343 344 345 346 346 346 348 349 349 348 347 346 343 343 343 339 337 331 325 322 321 320 319 319 318 315 315 315 317 315 315 317 320 333 334 340 344 343 336 329 326 325 326 325 324 321 319 318 320 326 325 331 333 329 328 328 328 329 329 328 329 333 335 333 331 332 334 334 334 333 331 331 333 340 342 340 338 337 339 336 333 334
340 341 341 341 338 339 341 343 345 348 347 346 345 343 341 341 341 343 337 330 324 322 322 323 324 325 322 320 319 316 316 317 314 313 314 317 326 327 335 339 333 330 329 329 330 332 336 334 328 320 318 320 322 323 327 332 327 327 327 327 327 326 325 326 331 336 335 336 335 335 334 336 336 336 334 333 334 339 335 331 334 336 333 333 331
339 340 340 340 339 340 341 341 341 341 341 343 343 341 341 340 340 336 331 326 324 324 324 321 321 322 322 322 325 318 317 319 314 313 312 314 322 322 329 334 332 332 330 324 325 326 331 334 333 328 324 323 318 321 325 328 325 325 325 325 324 323 322 323 331 332 333 332 332 334 335 336 338 337 339 340 339 338 334 333 333 331 328 329 330
340 340 339 339 339 340 342 343 343 342 340 339 339 339 340 340 336 330 326 325 324 323 323 321 320 320 321 319 319 318 317 317 318 312 312 314 318 323 322 327 329 326 325 324 323 325 328 328 327 321 319 317 315 316 319 323 324 324 323 322 322 322 322 325 336 335 333 332 331 330 329 329 330 331 331 334 338 338 333 332 332 330 327 326 327
339 339 339 339 338 338 340 341 340 339 339 339 340 340 339 336 329 325 324 324 323 323 322 322 322 321 321 321 320 320 319 317 318 313 312 314 316 321 321 323 323 326 327 327 322 323 328 327 327 321 316 315 314 313 315 321 327 325 323 321 323 324 325 328 332 334 330 330 329 328 326 326 325 327 328 327 330 335 336 334 332 331 329 325 323
338 338 337 337 337 337 337 337 338 338 338 338 333 330 330 329 327 325 324 324 324 323 322 322 318 318 319 319 318 319 322 323 320 320 314 312 314 319 322 324 324 326 325 324 324 326 326 327 324 321 314 314 311 309 312 319 325 330 321 316 319 326 331 331 326 325 324 323 322 322 322 321 320 321 324 324 324 330 331 332 332 330 330 329 325
336 335 335 335 335 335 336 336 336 336 335 333 330 328 327 326 326 325 324 323 322 320 319 318 318 318 320 321 323 323 323 323 321 321 318 313 312 315 319 323 321 329 323 324 324 325 328 325 328 321 309 307 308 311 315 319 325 321 316 318 320 324 329 325 326 321 320 319 318 317 317 318 318 317 320 319 320 322 325 326 328 330 329 330 331
335 334 334 333 334 334 334 334 334 332 331 329 328 325 325 325 325 325 324 323 321 319 318 319 319 319 319 319 319 319 319 319 320 321 321 317 314 312 313 315 318 325 328 326 327 326 324 325 322 309 306 305 310 315 318 324 322 313 316 320 324 327 324 322 320 319 320 317 316 315 315 316 316 316 317 318 318 318 321 321 322 326 330 327 326
333 332 332 332 332 332 332 331 331 330 329 328 326 326 325 325 324 325 325 323 322 320 320 321 320 320 319 318 318 319 320 320 320 326 326 325 318 314 315 315 319 318 327 328 331 327 320 310 308 311 310 312 315 319 320 321 317 317 318 322 327 321 321 318 317 316 314 315 315 314 313 315 315 316 316 315 318 317 319 317 319 321 324 328 326
331 330 330 331 331 331 330 330 329 329 328 328 327 326 325 325 324 323 324 324 324 324 324 324 321 317 315 316 317 316 317 316 315 316 321 322 321 320 318 319 325 326 325 324 322 318 314 312 313 313 317 326 331 329 327 326 323 325 325 326 320 319 318 316 315 314 313 313 314 313 312 312 312 314 316 314 312 312 316 315 314 315 317 317 313
328 327 326 326 326 327 327 327 327 328 328 328 328 327 326 326 326 326 325 325 325 326 324 321 318 317 316 315 315 315 313 312 311 311 311 311 313 316 315 317 319 319 320 319 320 320 324 328 326 323 324 326 328 328 326 325 323 319 318 321 323 321 319 316 313 313 315 313 313 311 311 311 314 314 311 311 311 311 315 317 312 312 315 313 310
323 323 323 324 324 324 325 328 325 323 325 326 326 326 327 327 326 325 325 326 325 323 320 318 318 317 315 314 312 312 311 311 311 308 310 309 309 308 311 313 311 312 315 314 314 323 330 330 327 329 326 324 322 321 321 321 322 319 315 315 316 322 322 322 319 315 312 312 311 311 312 310 310 311 311 309 309 310 313 314 313 311 313 311 307
323 321 321 322 322 324 321 320 318 316 314 312 311 313 319 320 317 316 318 320 325 322 318 318 319 316 314 312 311 312 313 312 314 306 307 303 304 303 308 308 307 312 317 311 325 329 327 326 324 323 322 321 319 318 317 316 316 316 316 314 314 314 314 312 311 311 311 311 310 310 309 308 308 310 310 308 309 309 309 309 310 308 309 309 308
319 320 320 320 320 321 319 319 318 317 315 313 311 309 308 303 309 315 314 317 313 311 313 318 317 315 312 312 313 311 311 312 303 297 295 295 295 297 298 297 297 306 310 315 323 321 321 320 320 320 319 318 316 315 314 312 312 312 314 317 315 314 313 313 312 312 313 312 310 309 308 309 307 308 308 309 308 307 308 310 307 308 306 306 306
319 318 320 319 320 319 318 317 317 316 315 314 313 312 310 308 299 302 310 310 304 300 300 303 307 312 317 311 309 304 302 298 294 294 294 295 296 297 298 298 301 304 311 320 320 319 319 319 319 319 318 317 316 315 315 313 313 312 312 313 314 315 315 312 311 313 312 312 311 311 310 308 307 308 307 309 309 306 306 308 307 307 306 306 306
317 317 317 318 319 318 316 316 316 315 314 314 313 313 311 310 309 301 298 302 302 299 297 298 299 302 306 310 314 308 300 295 294 295 296 297 298 297 296 297 301 305 308 313 319 317 317 317 317 316 317 316 317 318 314 313 312 311 311 312 312 314 312 311 310 309 309 309 308 309 308 308 308 308 308 309 309 305 305 306 304 305 306 305 308
316 315 317 318 318 319 316 315 316 315 314 313 313 313 311 311 310 309 308 301 298 296 296 295 295 295 295 294 295 299 298 296 295 295 297 297 298 300 300 300 301 306 311 316 317 317 317 317 316 316 316 315 314 314 314 313 312 312 313 312 311 310 309 308 308 309 308 307 306 305 305 306 307 308 308 307 306 303 305 305 304 305 305 304 308
318 316 316 315 315 314 314 313 313 313 312 312 312 312 314 313 311 310 309 310 310 304 298 295 294 294 293 294 295 295 295 297 298 298 298 300 302 304 305 310 303 303 309 317 316 315 316 316 316 316 316 318 317 317 316 316 317 314 312 309 308 306 306 305 304 305 305 305 304 305 304 303 305 303 303 303 304 304 303 306 303 304 304 304 304
324 326 326 324 317 317 316 315 314 314 315 316 316 316 315 316 317 316 312 312 312 311 311 312 304 300 307 302 298 298 299 299 300 300 300 301 303 305 308 317 316 315 315 315 315 314 315 314 314 314 313 312 313 313 311 310 309 309 308 306 304 304 304 304 304 303 302 301 302 302 303 302 301 304 303 302 301 300 302 303 302 304 304 304 304
319 318 319 321 320 319 320 320 321 320 319 317 318 319 321 321 319 318 318 321 315 312 313 313 313 309 303 299 298 299 299 299 299 300 300 302 303 307 315 314 314 314 314 313 314 315 314 312 310 308 307 307 307 307 307 307 306 305 305 305 305 303 302 302 303 301 301 299 301 302 300 299 300 301 300 301 301 301 300 302 302 305 306 304 305
316 316 316 317 317 317 317 318 319 323 327 328 325 324 323 322 324 319 318 317 317 315 312 313 314 316 316 319 312 302 300 300 300 300 300 301 304 314 313 313 312 311 312 310 310 309 307 307 307 306 306 305 304 303 304 303 303 304 306 304 303 302 303 302 301 302 298 298 297 298 297 297 298 299 299 299 301 300 301 303 302 304 305 305 305
315 314 314 315 316 316 316 317 321 324 322 320 320 322 323 322 321 321 319 317 317 315 313 315 317 313 312 314 320 316 313 306 304 303 303 303 307 310 311 313 311 309 309 309 309 307 307 306 305 304 304 303 303 302 302 301 301 300 300 300 302 302 302 300 300 298 299 297 297 296 298 297 297 298 300 298 299 299 300 302 300 299 301 304 302
317 320 321 320 319 314 314 317 317 316 316 317 319 322 323 321 319 316 314 313 313 313 314 311 311 312 311 312 310 314 312 308 307 306 307 307 307 307 307 308 307 306 306 305 307 306 304 304 306 306 304 303 303 302 301 301 301 300 299 298 297 296 296 295 295 295 296 295 295 295 295 296 297 297 299 298 299 299 298 299 300 300 298 299 299
315 315 319 321 321 321 321 321 317 316 317 316 317 319 320 317 314 313 312 312 311 311 310 310 310 309 310 309 310 310 308 308 307 306 305 305 305 304 304 304 304 304 303 302 302 302 302 302 302 302 301 301 300 300 300 300 299 300 299 299 297 296 295 295 294 294 294 295 295 295 294 295 297 298 296 299 299 298 298 298 300 300 299 299 300
315 317 321 318 318 318 319 317 315 314 315 316 316 315 315 315 314 315 313 312 312 311 310 308 307 306 307 306 305 305 307 306 306 306 306 305 304 303 303 302 303 302 303 303 302 301 300 300 300 301 300 300 299 299 298 298 298 298 298 299 298 298 296 295 294 294 294 295 294 294 294 295 297 296 296 299 302 299 298 299 299 298 300 300 300
312 312 314 316 318 317 316 317 316 318 316 317 314 315 315 315 313 313 314 313 312 311 309 307 306 307 304 302 300 301 306 306 306 305 304 304 303 303 303 302 302 301 301 300 300 301 300 300 299 298 298 298 299 299 298 297 297 296 296 296 296 296 296 294 294 294 293 293 293 294 293 297 298 298 298 301 297 297 297 298 298 298 298 298 300
316 314 314 315 314 314 313 313 313 312 313 314 315 318 317 314 313 313 313 312 311 310 309 308 307 308 307 305 305 305 306 306 307 305 304 303 302 303 301 301 301 301 300 300 300 299 299 298 297 297 297 296 296 296 294 294 294 294 295 295 294 294 293 294 293 294 293 292 293 295 294 295 296 294 295 298 297 297 296 297 298 298 298 297 298
317 318 319 318 316 314 314 311 311 312 312 316 316 315 315 313 312 312 310 310 310 309 308 307 307 306 305 304 304 304 304 303 303 303 303 303 302 301 300 300 300 300 300 300 299 299 298 297 297 296 296 296 296 295 295 294 293 293 292 294 296 296 293 293 292 291 292 291 293 293 292 294 295 293 296 299 297 296 297 297 298 298 298 297 298
311 313 312 312 313 312 312 313 313 313 315 313 311 312 314 310 309 309 309 308 310 308 308 308 307 306 305 304 304 303 303 303 304 303 302 301 300 299 299 299 299 299 299 299 299 298 298 297 297 296 296 295 295 295 295 295 294 293 292 291 291 291 290 290 291 292 291 291 291 292 293 294 292 292 296 297 299 297 298 296 297 300 298 297 297
312 313 313 312 312 311 311 309 314 308 309 308 308 307 308 308 308 309 309 308 308 307 306 306 305 305 305 303 304 304 302 301 301 302 302 300 300 299 298 298 298 298 298 298 299 298 298 297 296 295 295 294 293 293 293 293 294 293 291 291 291 291 290 290 291 292 291 290 290 290 292 293 293 296 300 298 296 297 296 296 297 298 297 298 298
311 312 312 312 310 310 310 309 306 307 306 307 307 307 306 306 307 309 310 309 308 307 305 304 303 303 303 302 302 302 303 301 300 300 299 298 298 297 297 297 297 296 296 297 297 297 298 297 296 295 295 294 293 292 291 290 290 291 294 290 289 290 289 291 291 291 290 291 291 289 290 291 293 294 296 298 296 297 298 297 298 298 298 299 298
312 311 311 312 310 309 310 309 311 312 308 308 307 308 308 307 307 307 307 307 305 305 303 303 302 302 303 302 302 301 301 300 300 300 298 298 296 296 296 296 297 296 296 295 296 297 297 296 295 296 296 296 296 294 292 290 289 289 288 288 290 291 292 294 290 290 289 289 289 290 290 290 291 293 295 296 295 296 297 297 298 299 299 299 300
310 310 310 311 311 309 308 309 310 306 306 307 308 307 307 306 306 305 305 304 304 303 302 302 301 301 301 302 301 301 300 301 298 297 297 296 296 295 295 296 297 296 296 294 294 296 295 295 297 295 294 294 294 295 293 294 293 292 291 288 291 295 292 293 292 291 292 290 289 289 289 290 292 294 296 295 297 297 298 297 297 299 299 299 300
310 313 312 312 310 307 308 306 305 304 305 305 304 304 305 305 304 304 303 303 302 301 300 301 302 301 301 301 301 299 299 299 297 297 296 295 295 295 295 295 294 294 294 294 295 295 294 293 294 295 294 293 293 293 293 293 291 291 290 290 293 290 290 292 294 294 291 287 288 288 290 291 292 293 293 294 295 297 298 299 299 300 299 298 298
312 310 309 308 307 306 305 303 302 302 303 303 303 303 303 302 303 303 303 302 301 301 301 300 299 300 300 299 301 299 298 297 297 296 296 296 295 296 296 295 296 294 293 293 293 293 293 294 294 296 296 297 295 293 291 290 289 290 293 294 290 288 287 288 289 288 291 291 288 290 293 293 293 293 295 295 296 296 300 299 298 298 298 298 299
Wind_Speed
12 12 10 10 10 10 9 7 7 6 6 6 6 6 5 5 5 6 4 5 4 4 5 4 4 5 5 4 4 3 3 2 5 8 7 7 6 5 4 3 4 4 4 4 2 2 2 2 2 2 1 2 3 3 3 4 2 3 2 2 3 1 2 2 3 6 5 1 2 3 5 4 4 2 5 6 7 6 6 4 4 4 2 0 0
11 11 10 10 11 11 10 8 7 6 7 6 7 6 6 6 5 4 5 5 5 5 6 2 3 8 7 5 3 3 1 3 5 5 4 5 7 7 5 5 4 4 3 3 3 2 2 3 3 3 2 3 2 2 3 3 2 3 3 3 4 4 1 2 3 2 6 4 5 4 4 1 4 2 4 7 8 7 7 6 5 3 3 1 1
12 11 11 10 12 11 10 9 8 8 9 7 8 7 6 6 5 6 6 6 4 5 3 9 7 6 4 5 5 4 2 2 2 4 4 2 5 6 8 5 5 4 4 5 4 3 3 3 3 3 1 2 3 3 2 2 1 2 4 2 3 3 2 2 1 3 5 5 2 3 3 3 3 5 6 5 5 4 5 6 5 4 3 1 2
11 11 11 11 12 11 10 9 10 10 10 9 9 8 7 6 5 6 7 5 6 4 9 7 6 6 5 1 3 5 5 5 4 4 5 6 6 6 6 6 6 5 5 4 4 3 4 3 4 3 1 2 3 3 2 1 2 3 3 3 2 4 2 2 3 3 2 3 3 3 3 5 4 3 4 5 4 5 4 5 4 4 4 3 1
11 11 11 12 11 11 11 10 10 10 10 8 9 8 8 7 6 7 7 6 4 8 6 7 7 7 7 8 7 6 4 3 3 4 5 5 6 4 5 5 3 3 4 5 4 4 4 5 4 2 1 2 3 3 3 2 2 2 3 2 3 3 3 2 2 2 3 5 5 2 2 3 3 4 3 5 7 5 4 4 4 5 4 3 1
11 11 11 11 11 12 12 11 11 11 10 9 9 9 8 7 7 6 6 7 5 7 8 6 7 8 7 7 6 6 5 5 5 4 4 4 5 4 3 4 5 5 7 6 5 4 5 5 4 3 2 3 4 3 2 2 2 0 0 2 2 2 2 2 1 1 2 4 3 5 2 4 5 4 3 3 6 7 8 7 4 3 3 4 3
11 11 11 12 11 12 11 11 11 10 10 9 8 7 8 8 8 8 7 6 7 8 8 9 8 7 7 7 7 7 6 6 6 6 6 5 5 5 4 3 3 5 6 6 5 4 4 4 3 3 3 3 3 3 2 0 1 3 2 2 2 3 3 3 3 3 2 3 3 3 4 3 3 6 5 4 4 3 5 6 8 4 2 2 5
11 12 12 11 11 12 11 10 10 9 8 8 8 8 8 8 8 7 6 7 8 8 9 9 8 7 7 7 8 7 7 6 6 6 6 6 6 6 5 5 5 5 6 6 4 4 4 3 4 3 2 3 2 1 1 2 2 3 2 2 2 3 4 4 4 4 4 4 4 6 3 5 4 3 4 4 5 4 1 2 6 7 7 4 3
12 12 12 12 12 11 10 9 8 8 8 7 8 8 9 9 8 7 6 6 7 8 8 8 7 7 6 6 6 6 7 8 7 7 6 6 6 6 6 6 6 6 6 5 3 3 2 2 2 4 2 4 8 7 6 5 3 3 2 3 3 4 3 4 4 5 4 5 5 4 5 5 4 5 6 5 5 6 5 3 4 5 5 7 7
11 11 12 12 11 10 10 8 8 8 8 9 9 10 9 9 9 8 7 7 7 7 7 7 8 9 8 7 6 6 6 6 8 12 9 6 7 6 6 6 6 6 5 4 2 1 1 1 2 8 10 10 10 10 9 9 8 5 4 3 4 4 3 4 4 4 5 5 5 6 7 6 5 5 5 4 5 5 6 6 7 6 6 6 6
12 12 13 12 10 9 9 9 9 10 10 10 10 10 11 9 9 9 8 7 7 6 7 8 7 7 8 8 8 7 7 6 10 11 11 10 6 6 7 7 7 7 6 5 3 5 5 5 5 8 8 7 6 9 9 10 9 9 10 10 8 5 3 4 3 4 5 6 5 5 6 7 7 7 7 7 6 7 6 6 7 7 6 8 9
13 12 12 10 9 9 9 9 9 10 10 11 11 10 9 8 8 7 7 6 6 6 7 8 8 7 6 6 6 6 6 3 6 5 7 8 8 7 7 7 7 7 5 4 5 6 6 5 4 3 4 5 4 5 6 9 9 10 10 10 13 14 11 6 4 4 4 3 4 4 5 5 6 6 7 7 7 7 6 7 7 7 8 7 6
12 12 11 10 10 9 9 9 10 10 10 10 9 8 8 7 7 6 7 7 6 8 8 7 7 6 6 7 5 1 2 8 7 6 6 7 7 6 6 6 6 5 2 2 4 6 6 6 5 4 4 9 6 4 5 5 8 10 11 10 12 12 10 10 9 5 3 4 4 5 4 5 6 5 6 7 7 7 7 6 6 7 7 8 7
7 11 10 10 10 9 10 10 11 10 10 9 9 8 7 8 7 6 6 5 7 8 7 6 3 2 2 2 5 5 4 8 8 7 7 8 8 7 4 2 5 5 3 2 2 3 5 6 5 5 4 5 5 5 5 5 5 5 6 6 6 9 10 11 10 10 7 3 3 3 5 4 5 6 7 6 8 8 7 7 7 8 8 8 9
9 8 9 10 9 10 10 11 11 10 10 10 10 9 8 7 6 4 3 3 4 5 6 6 6 7 7 6 6 6 5 11 8 8 7 7 7 6 4 1 3 4 8 7 6 4 4 4 5 6 5 5 5 5 4 4 5 6 6 6 5 4 4 5 6 4 4 4 3 3 5 5 5 6 6 5 6 7 6 6 7 9 8 8 7
10 6 7 9 11 11 12 11 11 10 10 9 8 7 5 6 7 7 7 7 7 8 8 9 9 9 8 7 7 7 6 13 11 10 8 6 3 2 0 4 5 7 7 8 9 6 3 5 6 6 6 5 6 7 6 5 7 7 7 5 5 5 5 5 6 5 5 3 3 3 4 5 7 7 8 6 5 4 6 5 5 5 6 5 6
11 10 10 8 8 10 12 12 10 10 9 8 7 7 9 10 9 8 9 8 8 9 9 8 8 9 8 8 8 7 8 11 13 13 12 12 5 2 3 5 6 7 7 9 9 7 5 5 3 6 5 5 5 8 8 8 7 7 6 6 6 6 8 7 9 10 10 9 9 9 10 11 13 15 17 19 13 5 4 5 7 7 6 7 7
9 10 11 9 2 5 8 5 4 9 8 8 8 10 10 8 9 9 11 10 10 9 8 9 9 8 9 9 8 8 7 10 12 13 13 13 8 3 2 6 7 8 7 6 5 4 7 12 7 6 7 5 7 9 8 6 7 6 7 7 8 8 7 7 6 6 8 9 11 11 12 12 13 14 16 16 17 13 9 11 9 7 8 8 8
9 10 10 8 6 7 9 6 7 7 6 6 10 11 10 9 7 8 9 11 11 9 9 10 9 9 9 9 12 10 7 8 12 13 15 15 10 6 4 4 8 7 7 8 7 6 6 7 10 8 7 7 10 10 9 8 7 6 5 7 7 7 5 6 5 7 7 8 9 9 10 12 10 9 11 17 17 14 9 8 7 8 8 8 8
8 5 4 3 3 6 8 9 7 5 5 5 6 11 7 5 9 10 10 9 10 9 9 10 11 9 7 8 7 6 7 7 8 12 13 15 15 9 8 6 6 8 8 8 9 8 6 3 7 8 9 10 10 10 10 9 7 5 5 7 6 6 4 5 6 5 5 6 7 7 8 7 8 9 9 10 10 9 8 7 7 6 7 7 6
6 8 8 8 7 6 3 5 9 9 8 8 10 11 9 6 10 11 11 9 10 10 10 10 10 9 9 8 8 8 7 7 8 12 12 12 15 11 6 6 7 6 7 7 7 5 2 2 3 5 7 9 10 10 10 9 7 5 5 5 3 1 3 4 6 9 6 6 7 7 7 8 9 8 9 9 9 9 7 6 6 6 6 6 6
5 8 10 10 9 10 9 7 8 9 8 7 8 9 9 10 10 11 10 11 12 11 10 10 10 9 8 8 8 7 8 12 5 10 13 12 11 13 8 6 5 5 5 8 7 1 4 0 1 2 6 9 10 10 10 8 7 6 4 3 3 5 5 5 4 5 6 6 7 8 9 9 9 9 9 9 9 9 8 8 6 6 6 5 5
8 7 9 11 12 11 10 10 8 8 9 10 12 11 9 10 10 11 12 12 12 11 10 9 10 9 7 6 5 5 4 5 11 7 10 11 11 9 7 4 6 4 3 4 5 4 1 0 2 6 7 8 10 11 11 11 9 5 10 13 12 10 7 6 6 6 6 7 7 8 8 8 8 9 9 9 9 9 8 8 9 6 5 6 7
9 9 8 9 9 10 11 11 10 9 9 10 11 12 11 10 10 9 10 11 11 11 9 8 8 8 8 7 7 7 5 5 8 8 7 10 11 11 10 10 8 3 1 0 1 2 3 3 4 4 5 9 13 14 13 10 8 11 12 12 12 9 6 6 6 5 6 7 7 8 8 7 7 8 8 7 7 7 7 9 9 10 6 5 7
10 8 9 11 12 12 12 12 12 11 10 10 12 12 11 10 10 8 9 10 10 11 8 7 7 7 7 7 5 5 4 4 4 4 6 6 7 8 8 7 6 5 2 2 1 0 4 6 3 3 7 12 15 14 12 12 14 13 13 12 10 6 5 5 5 5 7 7 7 7 7 6 6 5 5 6 6 8 9 8 8 9 9 7 6
11 10 10 10 9 12 14 14 13 12 12 9 10 9 11 10 9 8 8 8 9 9 8 8 7 6 6 6 6 5 5 4 3 4 4 3 2 3 4 5 6 5 4 2 4 3 3 4 6 8 8 8 8 8 7 8 12 12 12 10 5 5 5 5 6 7 7 6 7 7 5 5 5 5 4 6 9 10 8 8 8 9 8 7 7
9 9 10 10 10 11 13 12 12 11 12 10 8 9 8 8 8 8 8 9 9 8 8 7 7 6 6 6 5 5 4 2 1 1 2 3 2 2 3 2 3 2 1 1 1 2 6 6 6 9 13 15 14 13 11 10 8 7 6 5 5 5 5 5 6 6 5 6 5 5 5 5 4 6 8 8 8 8 7 7 7 7 8 7 6
8 10 12 12 11 11 12 18 15 11 10 10 10 8 6 6 8 8 7 8 8 8 8 7 7 7 7 6 5 5 4 3 3 3 3 3 3 3 2 1 1 1 0 0 2 4 7 8 10 9 9 8 7 6 6 5 5 4 5 5 5 6 8 11 9 5 5 4 4 5 5 5 7 6 6 7 7 7 6 6 7 7 7 6 7
12 12 10 11 12 11 12 11 10 10 10 10 9 7 4 6 7 5 4 2 6 8 7 7 5 5 6 6 7 5 4 3 2 1 3 4 3 2 2 2 2 2 2 2 5 7 8 8 8 8 7 7 6 6 5 5 5 5 6 6 6 6 5 5 6 5 4 5 6 5 5 5 6 6 6 7 7 7 6 6 6 6 6 6 6
11 10 9 10 10 10 11 11 10 9 9 10 11 11 13 13 7 6 6 10 15 12 9 6 6 6 7 4 3 4 4 2 4 6 6 6 6 6 7 6 5 3 3 7 7 9 8 8 7 7 7 6 6 5 5 5 5 6 5 4 4 5 5 4 4 4 3 5 5 5 5 5 6 6 6 6 6 6 6 6 6 5 6 7 7
9 9 9 8 8 9 9 9 8 8 8 9 9 11 10 11 15 15 14 12 14 16 15 14 12 9 7 5 4 9 8 6 4 4 6 6 5 3 1 1 2 4 3 9 9 8 8 8 7 6 6 5 5 5 4 5 4 5 5 4 5 5 4 5 5 3 4 5 5 5 5 6 6 6 6 6 6 6 6 5 5 6 6 6 6
9 8 8 8 9 8 8 8 9 9 9 8 8 8 10 11 11 14 15 14 14 14 13 13 12 12 11 8 4 2 3 2 2 4 5 4 7 8 8 9 9 10 9 13 10 7 6 7 6 5 5 5 4 4 4 5 4 4 4 5 6 6 5 6 5 5 6 6 6 6 6 6 6 6 6 6 6 6 6 7 7 6 6 6 6
9 8 7 8 7 8 7 7 7 8 9 9 8 9 10 10 11 9 10 13 13 13 13 14 13 11 11 10 9 6 5 2 1 1 3 8 10 11 14 14 12 11 15 11 8 7 6 6 6 5 5 5 4 4 4 4 4 5 6 6 6 6 7 6 5 6 6 6 6 6 6 6 6 6 6 6 6 6 6 6 6 6 6 6 6
7 6 6 7 7 6 6 6 7 6 6 7 8 8 8 9 9 9 9 7 8 10 11 9 9 9 8 7 8 9 9 9 10 12 13 12 12 13 13 11 15 15 11 7 7 6 6 6 5 5 5 5 5 5 6 6 6 6 7 7 6 6 6 6 6 6 6 6 6 6 6 6 6 6 6 6 5 5 6 6 6 6 6 6 6
7 11 14 8 6 6 5 6 6 7 7 7 8 8 9 8 8 7 8 8 8 7 7 6 6 9 11 10 13 16 17 18 17 16 15 12 11 14 14 11 9 8 9 7 7 6 6 6 6 6 6 6 6 6 6 6 7 7 6 6 6 6 6 6 6 6 6 6 7 6 6 7 7 6 5 5 6 6 6 6 6 6 5 6 5
7 6 6 7 6 6 6 6 6 6 7 7 7 8 7 7 7 7 7 7 7 8 8 7 7 9 16 16 17 18 19 19 18 17 16 15 13 14 10 8 8 7 7 7 7 7 7 7 6 6 6 6 6 7 6 7 7 6 6 6 6 6 6 7 7 7 7 6 6 6 6 6 6 6 6 5 5 6 6 6 6 6 6 6 5
6 6 6 6 6 5 5 5 5 6 6 6 6 7 6 7 6 6 7 7 7 7 7 6 7 8 9 8 11 15 17 17 17 18 17 16 16 13 8 7 7 7 7 7 7 7 8 7 6 6 6 7 6 6 7 7 6 6 7 6 6 7 6 6 6 5 5 5 5 6 5 6 6 6 6 6 6 6 6 6 6 6 6 8 7
6 7 6 6 7 7 6 6 6 8 7 7 6 6 6 6 6 7 7 8 8 7 7 6 7 7 7 6 7 7 9 13 18 16 15 15 12 9 8 8 8 8 7 6 6 7 7 7 7 7 6 7 7 6 7 6 6 6 6 6 6 6 8 6 7 5 6 6 7 7 6 6 6 6 6 6 6 6 6 6 6 6 6 7 6
6 10 12 11 8 7 6 7 7 7 7 7 7 7 7 7 8 8 7 7 7 7 7 7 7 6 5 3 4 6 12 11 9 8 8 8 8 8 8 8 8 8 7 7 7 7 7 7 6 6 6 6 7 6 6 6 5 6 5 5 5 5 6 6 7 6 6 6 6 6 6 6 6 6 5 5 5 6 6 6 6 6 6 6 6
7 6 8 11 7 7 6 6 6 7 7 8 7 8 8 7 8 8 7 8 8 7 7 7 7 6 4 3 4 8 11 8 7 7 8 8 8 8 8 8 8 7 7 7 6 6 7 6 6 7 7 7 6 6 6 5 5 5 5 6 6 6 6 5 6 6 6 6 5 6 6 6 6 6 5 5 5 5 5 5 5 5 5 5 5
6 6 7 7 8 7 7 7 7 7 7 7 7 8 8 8 7 8 8 9 8 8 8 8 7 6 6 10 12 12 10 8 7 7 7 8 7 8 8 7 7 7 6 6 6 6 6 6 6 6 6 6 6 6 6 6 5 5 6 5 5 5 5 5 5 5 5 5 5 5 5 5 5 5 5 5 6 6 5 5 5 5 5 5 5
7 7 7 6 7 7 7 7 6 7 7 8 8 8 8 8 7 8 8 8 8 8 9 8 7 6 9 15 14 15 11 8 8 8 7 7 7 7 7 7 6 6 6 6 5 6 6 6 7 6 6 6 6 5 5 5 5 5 4 4 5 5 5 5 4 4 5 5 5 5 5 5 5 5 5 6 5 5 5 6 5 5 5 6 5
7 6 6 6 6 6 6 6 7 7 8 8 7 7 8 8 8 8 9 8 8 8 8 8 7 6 8 10 12 13 9 8 8 8 7 7 7 7 7 6 6 6 6 5 5 6 6 7 7 6 6 5 5 5 5 5 5 5 4 4 5 5 4 4 4 5 5 5 5 5 5 5 5 5 5 5 5 5 5 5 5 6 5 6 5
6 6 6 6 6 6 6 7 7 7 7 9 9 8 7 8 7 8 8 8 8 7 7 7 7 7 6 6 8 9 8 7 7 7 7 6 6 6 6 5 5 6 6 5 5 5 6 6 6 6 5 5 5 4 5 5 5 5 5 4 3 4 4 4 4 5 5 5 5 5 5 5 5 5 5 5 5 6 5 6 6 6 6 5 6
6 6 6 6 6 7 6 6 7 7 8 8 7 7 7 7 8 7 8 8 7 7 6 6 6 6 6 6 7 8 7 7 6 6 6 6 6 6 5 5 5 5 5 5 5 5 6 6 5 5 5 5 4 4 5 4 4 4 3 4 4 3 3 3 3 3 2 4 4 4 5 5 5 5 5 5 5 5 5 5 5 6 6 6 6
5 6 6 7 6 6 6 7 7 7 8 8 8 7 6 7 7 7 7 7 7 7 6 6 6 6 6 6 6 6 6 6 6 6 6 6 6 5 5 5 5 5 5 5 4 4 4 4 5 5 5 4 4 4 4 3 3 3 3 3 3 1 1 2 2 2 3 3 4 4 4 4 5 4 7 5 5 5 5 5 5 5 5 5 5
5 6 6 6 7 6 6 7 7 7 7 7 7 7 7 6 6 6 6 8 7 6 7 6 6 6 6 6 6 6 6 6 6 6 5 5 5 5 5 4 5 4 3 3 3 4 3 3 3 4 3 3 3 3 3 2 2 1 1 1 1 1 2 2 1 1 2 2 2 2 3 4 5 4 6 5 5 5 5 5 5 6 6 6 6
5 6 6 6 6 7 6 7 8 8 7 7 7 7 7 7 7 6 6 6 7 6 6 6 6 6 6 6 5 5 5 5 5 5 5 5 5 4 3 3 3 3 3 3 3 3 3 3 3 3 3 3 2 1 1 1 1 1 1 1 0 0 1 3 2 2 2 2 1 2 2 4 4 4 4 5 5 5 5 6 6 5 6 6 6
5 5 6 6 6 6 7 7 7 7 8 7 7 7 6 6 6 6 6 6 6 6 6 6 6 5 6 6 5 5 4 5 5 4 4 5 3 3 3 3 3 2 3 3 3 3 3 3 3 3 2 2 2 2 1 1 0 0 1 1 3 5 6 6 4 4 4 3 2 2 2 3 4 5 5 5 5 5 5 5 5 6 6 6 6
5 5 5 5 5 5 6 6 7 7 7 7 8 7 6 6 6 6 6 6 6 5 5 5 6 6 6 6 5 5 5 5 5 5 5 5 4 3 3 3 3 3 3 2 1 1 1 1 3 3 2 3 2 3 2 2 1 0 0 1 5 6 7 7 6 8 6 4 3 2 3 4 4 4 5 5 5 6 6 6 6 5 5 6 6
6 5 5 5 6 6 6 7 7 7 7 7 8 7 7 7 6 6 6 7 6 6 6 6 5 5 5 5 5 5 4 4 5 5 5 5 4 4 4 3 3 2 1 1 1 1 0 0 1 3 3 3 3 3 3 2 2 1 1 4 6 6 7 6 6 8 8 5 3 3 4 4 4 5 6 5 5 5 6 7 5 5 5 5 6
Wind_Direction
195 199 193 197 197 200 203 201 202 198 200 201 204 205 204 205 210 214 212 225 216 214 214 216 208 208 214 219 229 233 239 282 21 10 335 330 294 243 247 233 233 249 241 255 231 186 190 217 257 268 222 240 254 264 269 274 295 295 294 320 309 267 166 185 242 282 300 273 274 293 320 343 323 4 337 330 330 335 336 326 332 343 360 143 201
199 199 196 195 198 199 202 201 201 196 202 204 209 209 207 206 207 206 215 226 213 219 218 215 36 32 42 48 57 59 90 133 148 167 190 187 269 287 259 235 229 234 219 238 238 230 201 223 268 273 274 248 267 270 266 288 306 310 306 311 300 307 272 211 248 246 285 320 317 316 309 8 322 318 349 332 326 332 332 330 329 329 327 194 192
199 197 197 197 200 200 199 201 199 200 204 208 213 216 216 213 203 210 216 221 214 216 98 94 126 142 160 178 171 172 179 220 165 201 230 222 250 266 268 235 216 222 229 241 240 232 224 233 252 255 272 267 269 270 278 272 276 284 299 316 296 290 282 218 227 274 281 287 269 309 311 326 313 305 328 320 306 307 315 320 324 320 333 274 219
198 197 199 202 199 198 200 202 202 204 207 211 215 218 219 220 213 218 220 212 211 107 121 141 148 194 202 216 233 203 192 199 194 190 206 218 228 239 252 245 230 225 228 236 234 218 225 239 254 241 230 263 277 291 293 257 238 258 274 281 267 293 272 237 219 229 258 296 303 309 310 330 303 297 305 307 308 317 311 301 306 307 315 311 238
195 198 199 201 201 200 201 200 203 206 209 210 216 216 218 220 220 221 220 220 181 135 158 159 180 191 203 197 210 222 212 173 206 214 216 233 244 252 246 243 270 292 260 230 224 215 224 225 247 239 219 248 279 279 287 296 273 262 293 315 313 291 288 255 250 213 253 279 289 282 309 295 266 298 316 333 329 321 307 301 306 310 304 302 279
196 196 198 200 203 204 203 201 204 205 206 210 212 214 216 219 223 224 217 222 160 168 162 188 192 201 200 200 195 202 197 195 209 217 217 225 248 249 234 203 194 210 254 251 230 225 226 237 243 227 230 231 257 267 267 282 292 329 305 311 312 303 309 308 262 235 229 262 260 299 311 309 319 306 306 340 329 323 324 322 321 314 330 328 317
196 197 198 201 202 205 204 205 204 205 206 208 208 211 216 219 221 223 216 208 168 174 182 192 206 196 205 195 200 201 201 200 207 210 216 220 226 241 243 228 222 233 242 241 236 234 239 247 244 223 231 232 246 261 269 274 76 86 40 7 347 355 354 344 336 325 302 295 283 252 288 279 275 310 319 330 306 285 301 321 323 326 336 324 315
197 198 198 202 203 205 206 204 203 204 204 205 207 212 215 218 219 219 209 204 180 185 186 195 200 201 202 199 204 189 188 199 210 217 215 216 217 222 225 226 227 232 240 240 235 230 235 237 248 238 229 252 239 224 136 104 80 69 20 13 6 7 355 345 344 341 329 316 308 314 299 305 302 278 299 330 332 332 15 309 309 319 323 321 280
200 200 201 202 204 203 202 202 200 200 202 200 206 212 214 217 217 215 212 204 185 191 193 188 183 197 201 200 203 192 192 203 205 203 205 210 210 217 218 222 227 235 240 239 233 243 265 261 271 262 200 94 90 81 74 74 73 52 1 2 357 354 343 341 338 331 322 317 315 298 302 306 313 319 329 332 331 316 322 341 296 303 307 313 312
202 205 205 206 206 202 200 198 197 196 198 202 208 211 213 214 214 214 213 203 196 185 186 186 185 192 194 200 203 203 210 212 211 204 199 198 203 213 218 221 224 226 238 233 230 205 201 58 91 98 84 80 73 65 56 47 42 36 9 357 354 354 355 344 339 329 322 321 321 326 317 309 315 336 321 324 329 339 336 333 317 314 312 303 296
203 204 208 208 205 201 198 200 196 197 201 204 210 212 212 211 212 215 215 204 198 190 179 180 186 192 193 191 196 205 213 216 210 207 209 215 213 215 220 222 216 215 210 205 177 127 93 74 71 66 63 55 51 51 46 39 32 29 28 30 44 52 29 31 17 11 355 337 332 336 343 349 358 348 343 343 344 344 329 319 314 316 313 317 314
203 204 208 205 203 200 202 200 199 203 202 207 212 215 213 210 212 214 213 202 198 182 178 184 187 187 191 193 197 205 208 211 196 216 228 230 230 221 219 218 217 215 210 189 154 141 119 100 81 86 92 86 65 38 34 36 37 39 41 55 69 56 53 51 38 31 14 5 3 359 353 352 331 339 337 338 335 326 319 315 314 316 313 308 304
204 202 199 198 199 197 197 201 204 205 206 208 211 213 211 205 204 200 203 197 179 182 184 175 184 182 178 187 188 107 56 25 356 327 303 287 261 241 217 217 213 215 193 113 133 128 121 111 102 63 53 64 57 50 47 33 32 44 50 54 58 55 48 40 35 33 6 22 15 355 1 331 326 329 326 321 321 315 320 321 319 311 307 305 305
229 205 192 193 192 190 191 198 204 207 204 204 205 207 204 204 197 195 185 170 180 184 177 171 154 149 131 99 74 53 49 5 356 341 331 321 308 291 251 206 68 62 92 122 67 82 107 119 109 83 51 50 47 51 49 47 42 45 46 50 46 38 36 32 25 21 27 30 358 337 322 331 314 308 310 312 312 316 317 311 304 302 305 304 306
213 226 202 191 185 189 193 196 201 203 202 199 195 195 193 186 174 151 109 91 73 59 59 71 69 57 52 62 73 51 14 6 0 348 329 314 310 300 304 27 89 75 54 32 25 47 63 88 90 85 66 48 36 57 65 63 68 65 60 54 47 39 35 24 12 356 359 359 340 308 308 313 299 299 296 294 282 283 290 286 295 301 294 283 280
210 202 222 197 191 191 192 196 199 198 196 188 177 164 138 121 98 85 82 86 90 87 61 53 52 58 56 55 59 44 19 14 12 12 3 343 291 271 68 96 119 122 105 94 87 64 47 58 75 75 69 58 31 48 78 85 79 73 66 52 44 37 34 23 5 8 14 353 338 337 328 329 340 341 341 325 280 282 294 301 288 288 312 327 325
204 184 202 231 212 198 193 192 194 192 182 167 149 125 113 104 104 106 96 91 79 71 78 77 78 76 69 66 64 43 26 14 28 29 23 11 24 36 87 98 97 94 97 107 107 114 100 91 95 96 85 71 55 63 71 85 77 72 68 59 49 41 23 1 360 18 13 20 23 25 17 17 19 16 17 18 22 356 313 331 351 346 340 346 339
206 199 190 190 152 36 359 324 211 179 162 142 119 112 110 110 120 124 120 112 99 100 98 83 68 68 71 69 66 66 43 14 30 46 42 29 20 15 86 109 103 108 114 110 112 122 121 116 115 102 95 83 67 69 64 72 74 67 61 57 50 38 16 355 356 12 17 42 42 37 30 29 26 26 27 27 28 29 36 32 353 359 20 7 359
181 189 191 175 145 124 107 79 12 5 36 86 116 111 109 113 113 96 98 102 104 106 100 96 90 79 76 74 70 72 62 29 18 38 51 47 38 12 4 111 122 115 103 83 57 50 47 88 97 98 93 89 75 71 69 72 76 66 62 62 53 42 3 336 355 14 20 32 32 29 27 22 24 24 25 31 33 34 36 29 9 31 30 16 9
176 148 74 72 119 115 112 115 113 105 102 58 63 85 82 103 98 92 89 95 101 101 100 97 95 86 81 81 75 65 65 57 30 20 43 52 51 45 21 22 54 81 68 62 56 32 30 15 72 79 96 93 87 81 76 74 76 69 65 65 61 40 344 347 29 37 33 41 39 37 33 22 23 25 22 19 20 25 26 23 22 27 34 30 25
140 132 123 116 116 97 91 124 127 131 136 137 134 137 144 135 106 108 110 107 105 102 97 95 90 85 76 70 67 57 52 39 30 27 31 49 59 55 43 42 38 54 76 73 79 61 354 336 68 90 101 99 89 77 71 68 67 65 59 72 66 274 294 29 35 45 43 38 37 33 30 25 24 22 20 19 13 6 11 17 18 18 22 28 27
131 128 126 123 119 123 130 121 122 124 133 135 107 91 97 109 112 111 110 108 104 98 94 93 95 95 93 88 80 74 64 69 49 21 21 15 49 78 58 18 13 17 49 95 86 125 249 262 46 91 84 83 81 77 71 66 61 68 69 101 78 55 58 55 48 49 44 40 36 34 29 24 23 19 17 15 10 0 3 7 10 17 12 17 26
123 122 127 125 123 118 115 120 123 126 128 120 109 104 105 106 106 109 109 105 101 100 99 101 99 100 99 91 93 91 84 65 52 38 27 41 31 28 69 88 343 36 29 84 141 199 241 316 71 65 57 63 70 75 84 82 69 75 75 64 59 57 62 57 58 53 49 43 39 37 28 23 20 18 14 8 1 360 4 7 6 12 24 21 26
117 117 113 109 112 114 115 114 110 105 109 106 104 108 106 104 103 103 107 108 109 106 104 104 101 99 97 90 82 83 85 86 75 68 44 34 23 22 17 32 48 59 325 204 83 50 24 27 36 50 86 79 85 86 83 77 74 64 63 66 63 61 60 60 53 53 55 49 43 35 29 19 19 17 11 358 1 357 6 15 9 7 19 38 29
117 118 117 119 119 118 111 108 106 103 100 108 112 112 105 105 104 106 108 108 109 110 113 109 102 101 98 99 91 70 49 46 24 51 61 45 30 15 10 2 356 7 338 333 6 322 45 22 8 71 93 101 97 88 76 71 69 64 60 61 65 56 59 60 55 53 53 49 47 38 29 19 16 16 360 356 1 16 21 16 15 18 15 21 27
107 107 103 100 102 106 105 102 101 102 101 95 96 101 113 115 114 116 112 112 113 110 111 105 100 100 98 88 83 75 60 41 29 12 22 33 56 25 359 337 339 344 322 269 273 281 82 175 139 118 117 107 93 87 83 75 69 69 69 66 58 62 58 59 54 56 56 51 48 41 21 5 9 1 12 20 29 20 7 12 10 13 10 12 12
90 95 98 94 91 96 100 105 103 100 98 92 93 101 104 112 113 113 114 114 110 111 113 114 114 109 100 95 87 83 79 68 39 355 360 353 354 353 2 346 342 300 246 228 184 156 151 140 110 95 88 84 86 88 89 81 69 58 47 46 57 67 66 59 61 62 57 56 51 41 22 6 0 23 25 26 28 16 4 15 16 8 7 0 17
79 93 95 96 93 92 94 99 98 97 91 99 98 87 86 102 108 107 118 124 121 118 119 115 119 122 118 112 107 96 72 55 32 355 349 358 350 342 326 353 339 271 308 332 179 144 116 113 112 102 92 85 80 77 75 77 77 73 65 56 53 53 61 66 64 57 53 59 59 46 33 22 32 22 23 27 26 15 6 15 18 6 9 358 23
78 67 70 85 90 90 88 83 79 83 83 75 64 51 63 86 88 70 19 39 118 125 119 105 106 109 108 107 103 85 79 62 29 353 324 341 332 333 341 341 309 343 4 304 118 106 105 102 101 95 93 95 91 84 81 80 72 63 64 59 58 58 55 55 64 58 53 53 53 47 41 32 33 23 22 27 19 9 3 14 14 14 360 19 27
72 76 81 85 88 91 96 96 99 101 100 99 95 78 53 49 45 88 81 55 68 71 87 105 111 108 92 58 35 101 106 82 26 9 337 316 300 277 279 289 285 305 346 65 94 93 89 93 89 95 96 96 95 91 86 79 76 68 61 62 67 69 61 58 60 58 60 60 53 50 39 38 36 25 24 24 9 8 1 19 5 3 15 8 6
81 78 77 78 91 96 98 100 104 105 103 102 105 110 101 63 48 55 75 78 81 80 82 86 87 88 105 113 60 53 58 54 28 330 327 326 324 336 359 6 11 32 73 95 67 85 95 92 91 86 91 93 94 97 93 87 83 82 71 58 55 54 48 45 25 30 49 49 46 41 36 38 34 25 24 16 11 0 356 4 7 5 11 2 2
89 85 85 86 86 87 92 104 110 112 110 108 104 103 98 94 68 41 47 63 71 79 84 84 82 76 66 69 108 85 63 54 356 349 356 45 81 82 70 59 53 62 69 87 83 73 82 92 92 93 97 94 94 90 85 86 79 75 70 63 49 36 35 31 10 32 43 44 42 38 32 30 26 22 19 12 10 5 360 360 2 358 358 357 357
97 98 97 99 98 101 104 107 109 109 112 109 105 101 100 99 96 88 45 45 57 66 67 67 67 71 77 67 60 90 108 105 112 128 109 83 82 81 72 60 52 61 73 69 91 83 81 88 91 85 83 93 84 85 76 72 67 55 47 52 51 42 40 27 21 43 45 43 45 41 31 27 21 19 17 11 10 3 359 2 351 350 354 356 353
90 96 101 102 100 96 96 102 103 98 96 101 103 100 100 102 108 108 107 101 66 50 49 65 91 93 78 91 105 106 112 101 79 62 57 63 73 75 81 69 58 45 66 92 87 95 86 87 79 75 69 62 51 49 49 47 54 59 60 58 57 51 44 34 38 35 41 38 41 34 31 26 21 19 8 7 2 5 3 355 351 353 353 353 354
87 95 94 87 87 92 92 92 98 103 102 99 100 102 103 107 111 111 115 110 104 96 89 67 53 66 84 81 76 72 64 59 57 56 52 54 71 80 68 60 52 40 42 43 59 62 67 62 61 51 48 52 45 52 57 54 56 57 59 62 56 51 43 41 40 35 34 33 34 29 25 24 14 9 7 356 2 4 357 354 352 348 350 352 0
75 74 76 82 82 85 88 90 89 91 95 97 105 109 111 111 108 109 106 100 97 94 80 75 89 82 75 67 68 66 63 59 56 53 51 49 52 72 76 69 66 58 60 46 57 59 62 57 59 57 57 59 57 59 60 64 63 65 56 56 56 51 48 39 34 31 30 31 28 23 20 19 10 359 352 354 7 2 353 357 354 350 355 355 354
83 82 85 87 91 90 87 86 89 94 95 99 98 100 104 105 104 98 87 84 84 83 89 93 83 64 59 60 68 71 67 66 61 55 49 49 53 64 72 72 76 69 61 54 57 65 62 54 58 62 58 66 62 63 65 61 54 56 59 52 47 46 41 42 36 28 24 28 24 20 19 14 3 1 2 358 357 357 355 357 357 353 356 358 359
84 92 95 98 98 92 91 88 90 87 91 94 93 98 99 97 93 85 87 86 85 86 86 78 74 74 70 46 42 67 64 54 51 44 38 40 42 51 56 66 64 65 66 62 62 64 71 67 62 67 64 65 64 56 63 60 58 58 56 51 46 48 47 39 30 22 27 25 22 12 10 6 2 358 358 2 357 357 353 352 351 351 348 351 351
71 86 90 86 82 90 92 93 89 90 88 90 98 103 100 93 88 86 86 85 84 84 82 76 67 65 48 30 44 58 64 50 55 53 48 49 48 49 57 60 64 66 59 54 58 62 62 62 59 66 64 65 68 63 64 65 63 65 62 67 62 48 37 28 27 19 21 20 13 8 4 357 352 355 353 353 359 0 348 349 348 351 345 343 340
76 67 74 80 77 76 79 78 80 81 88 92 89 97 99 97 99 101 99 93 88 82 77 72 63 48 29 35 64 77 77 69 65 65 65 58 55 50 54 61 62 65 66 60 57 58 63 60 59 63 64 62 63 64 60 61 59 58 59 59 58 51 40 31 25 24 15 9 8 3 1 350 348 353 347 353 357 353 344 343 340 343 339 344 336
78 76 73 71 80 76 72 71 72 79 81 86 96 98 102 104 103 102 97 94 93 87 79 75 72 55 54 71 72 83 90 84 75 71 68 71 65 62 58 57 60 62 61 63 62 63 64 66 60 64 65 67 64 63 60 57 53 50 49 53 57 59 46 35 28 24 11 7 359 0 354 345 347 1 349 341 357 352 339 339 339 338 337 339 340
85 80 73 68 70 77 76 75 76 82 86 95 97 102 103 104 105 103 100 97 96 93 90 84 76 71 67 73 76 82 85 81 77 74 70 67 67 63 63 59 57 60 62 60 59 70 72 70 65 64 65 62 65 65 66 63 59 59 55 53 55 55 49 36 27 18 13 6 353 356 352 349 353 354 346 357 351 340 340 339 337 336 336 339 336
86 82 81 74 73 78 91 96 98 97 96 98 101 103 105 104 102 100 100 99 100 98 100 95 86 78 70 66 76 76 78 78 79 74 70 68 68 66 63 62 59 60 60 61 59 68 76 78 73 65 68 66 64 66 67 66 60 55 49 63 64 56 46 38 21 13 7 2 354 353 351 344 348 344 330 347 344 339 339 337 337 337 332 331 330
89 88 85 82 86 82 87 96 93 97 100 106 105 103 102 99 97 98 100 100 99 100 102 101 104 96 89 74 75 78 83 86 86 83 82 79 77 74 70 68 66 66 63 62 60 67 77 82 83 74 68 66 64 63 66 63 65 68 58 51 49 55 38 20 15 2 357 352 349 352 343 343 346 338 340 347 343 343 336 340 339 333 332 329 328
96 98 95 91 91 94 90 91 97 98 97 93 88 93 99 103 103 104 104 103 105 105 103 106 105 101 92 80 79 83 84 86 89 88 84 84 83 81 82 79 78 79 76 74 68 73 77 83 91 93 84 70 66 67 65 63 63 67 69 73 67 46 6 348 330 333 342 353 348 344 342 341 338 332 331 338 342 338 338 335 330 331 334 330 328
105 103 103 104 101 95 93 90 94 100 103 104 104 99 96 97 103 108 108 109 111 110 107 103 101 99 97 94 90 90 91 94 95 100 101 96 96 95 92 91 86 81 79 81 85 89 99 105 105 105 99 89 75 67 61 62 63 69 71 75 91 83 307 291 302 344 352 343 340 336 331 336 336 338 353 348 334 336 333 329 331 334 329 326 328
103 100 107 109 110 106 104 107 105 104 103 107 109 110 106 106 108 106 109 116 112 108 109 108 106 105 105 107 111 111 108 107 110 110 115 117 112 106 98 94 96 98 97 93 97 103 105 106 113 108 106 97 85 77 71 63 61 50 75 102 73 22 338 317 310 313 311 323 327 324 332 326 328 324 332 340 339 342 341 340 342 342 344 346 343
99 94 95 101 105 106 109 110 109 109 108 110 112 113 113 114 111 113 112 110 109 109 108 107 109 114 113 113 114 114 116 116 113 110 110 117 126 128 128 129 122 121 110 96 91 103 115 120 114 110 112 126 125 128 126 85 41 43 11 353 291 153 350 358 358 346 339 332 318 328 319 321 317 324 328 337 343 345 345 345 346 347 356 349 350
106 104 100 106 114 118 119 116 118 121 122 120 114 112 115 111 111 111 112 114 115 117 120 122 121 117 113 116 114 112 110 108 112 121 131 142 147 152 144 136 128 125 106 103 93 95 109 118 99 105 141 159 163 168 176 193 210 262 356 352 19 30 19 17 18 0 358 358 356 350 326 328 341 341 336 341 344 343 338 346 347 352 353 349 350
108 109 109 112 111 113 110 112 117 119 121 121 121 120 118 117 117 118 119 115 113 116 123 124 120 121 123 122 121 125 131 141 151 154 156 156 146 136 127 125 131 135 132 138 141 150 168 124 120 138 151 170 182 184 188 184 200 200 336 16 41 38 22 9 9 11 9 1 357 340 329 333 341 343 340 335 337 343 347 350 346 348 347 343 345
109 104 107 116 119 118 119 119 118 124 126 127 127 128 126 127 129 130 131 131 133 133 127 121 124 126 126 133 137 142 151 164 167 168 163 152 140 129 127 137 141 137 141 160 232 260 260 118 137 173 176 181 192 202 200 198 192 181 80 46 50 43 29 20 9 354 0 1 345 345 356 359 351 344 343 336 333 339 349 349 341 344 343 343 339